NKS132 KJFK-KFLL

Flight info

Callsign NKS132
Flight time N/A
Altitude 36000
Route WAVEY EMJAY Q167 ZJAAY KALDA Q161 CHIEZ Y291 MAJIK CUUDA3
Aircraft A21N/M-SDE2E3FGHIRWXY/LB1

Departure

Time 2026-05-09 15:01
Airport John F. Kennedy International Airport (KJFK)

Arrival

Time N/A
Airport Fort Lauderdale Hollywood International Airport (KFLL)
Time Latitude Longitude Altitude Speed Heading
2026-05-09 14:40 40.64117 -73.78166 23 ft 0 kts 241°
2026-05-09 14:49 40.64118 -73.78165 23 ft 0 kts 241°
2026-05-09 14:51 40.64119 -73.78163 23 ft 2 kts 241°
2026-05-09 14:51 40.64126 -73.78144 24 ft 2 kts 241°
2026-05-09 14:51 40.64134 -73.78125 25 ft 2 kts 241°
2026-05-09 14:51 40.64142 -73.78106 24 ft 2 kts 241°
2026-05-09 14:52 40.64150 -73.78088 23 ft 2 kts 234°
2026-05-09 14:52 40.64161 -73.78072 28 ft 2 kts 196°
2026-05-09 14:52 40.64177 -73.78071 23 ft 2 kts 155°
2026-05-09 14:52 40.64184 -73.78075 27 ft 0 kts 151°
2026-05-09 14:54 40.64146 -73.78047 23 ft 12 kts 151°
2026-05-09 14:54 40.64038 -73.77969 23 ft 23 kts 155°
2026-05-09 14:54 40.63860 -73.77932 23 ft 29 kts 171°
2026-05-09 14:55 40.63656 -73.77895 23 ft 25 kts 172°
2026-05-09 14:55 40.63534 -73.77781 25 ft 21 kts 120°
2026-05-09 14:55 40.63518 -73.77701 24 ft 3 kts 40°
2026-05-09 14:55 40.63548 -73.77673 25 ft 8 kts 28°
2026-05-09 14:56 40.63609 -73.77628 23 ft 12 kts 32°
2026-05-09 14:56 40.63697 -73.77559 23 ft 17 kts 31°
2026-05-09 14:56 40.63812 -73.77469 23 ft 21 kts 31°
2026-05-09 14:56 40.63947 -73.77363 23 ft 24 kts 30°
2026-05-09 14:57 40.64100 -73.77244 24 ft 27 kts 30°
2026-05-09 14:57 40.64267 -73.77111 24 ft 29 kts 31°
2026-05-09 14:57 40.64451 -73.76996 23 ft 29 kts
2026-05-09 14:57 40.64629 -73.76894 24 ft 27 kts 32°
2026-05-09 14:58 40.64788 -73.76770 25 ft 26 kts 31°
2026-05-09 14:58 40.64938 -73.76653 24 ft 25 kts 30°
2026-05-09 14:58 40.65067 -73.76547 24 ft 14 kts 30°
2026-05-09 14:58 40.65090 -73.76465 25 ft 8 kts 96°
2026-05-09 14:59 40.65085 -73.76442 25 ft 0 kts 117°
2026-05-09 14:59 40.65084 -73.76440 25 ft 3 kts 117°
2026-05-09 14:59 40.65030 -73.76363 27 ft 18 kts 166°
2026-05-09 14:59 40.64916 -73.76436 25 ft 19 kts 210°
2026-05-09 15:00 40.64904 -73.76446 24 ft 0 kts 211°
2026-05-09 15:00 40.64745 -73.76571 25 ft 60 kts 211°
2026-05-09 15:01 40.63200 -73.77783 28 ft 191 kts 211°
2026-05-09 15:01 40.61987 -73.78681 479 ft 203 kts 208°
2026-05-09 15:01 40.60707 -73.79536 1113 ft 214 kts 206°
2026-05-09 15:02 40.59323 -73.80412 1764 ft 229 kts 206°
2026-05-09 15:02 40.57904 -73.81457 2597 ft 237 kts 213°
2026-05-09 15:02 40.56564 -73.82714 3518 ft 236 kts 216°
2026-05-09 15:02 40.55212 -73.83954 4350 ft 239 kts 214°
2026-05-09 15:03 40.53813 -73.85170 5163 ft 242 kts 213°
2026-05-09 15:03 40.52245 -73.85993 5848 ft 249 kts 188°
2026-05-09 15:03 40.50475 -73.85749 6236 ft 267 kts 158°
2026-05-09 15:03 40.48940 -73.84349 6888 ft 274 kts 130°
2026-05-09 15:04 40.48051 -73.82141 7625 ft 278 kts 103°
2026-05-09 15:04 40.47864 -73.79609 8380 ft 281 kts 90°
2026-05-09 15:06 40.53137 -73.60833 11649 ft 370 kts 67°
2026-05-09 15:06 40.54141 -73.57655 11944 ft 380 kts 67°
2026-05-09 15:06 40.55156 -73.54446 12002 ft 381 kts 67°
2026-05-09 15:06 40.56172 -73.51233 12001 ft 381 kts 67°
2026-05-09 15:07 40.57193 -73.48016 12000 ft 381 kts 66°
2026-05-09 15:07 40.58534 -73.45024 12000 ft 381 kts 49°
2026-05-09 15:07 40.60543 -73.42796 12000 ft 379 kts 29°